Location: Podia
(1.5569°N, 32.3469°E)
Time: 02:03:15
(UTC+00:00)

S-56A Canister/Altair - All Passes

Search period start: 21 September 2020 00:00
Search period end: 01 October 2020 00:00
Orbit: 633 x 2499 km, 38.9° (Epoch: 20 September)

Date Brightness Start Highest point End Pass type
(mag) Time Alt. Az. Time Alt. Az. Time Alt. Az.
21 Sep - 00:15:37 10° W 00:19:21 25° SW 00:23:12 10° SSE night (unlit)
21 Sep - 08:44:03 10° S 08:53:39 25° SE 09:04:40 10° E daylight
21 Sep - 10:46:30 10° SW 11:00:30 76° SE 11:15:24 10° NE daylight
21 Sep - 12:53:53 10° WSW 13:07:35 42° NW 13:20:13 10° NNE daylight
21 Sep - 15:11:51 10° NW 15:15:47 11° NNW 15:19:30 10° NNW daylight
21 Sep - 21:39:02 10° NNW 21:43:01 20° NE 21:46:28 10° E night (unlit)
21 Sep - 23:42:36 10° WNW 23:46:48 34° SW 23:50:53 10° SSE night (unlit)
22 Sep - 08:11:53 10° S 08:20:08 20° SE 08:29:39 10° E daylight
22 Sep - 10:13:27 10° SW 10:26:50 67° SE 10:41:48 10° ENE daylight
22 Sep - 12:19:58 10° WSW 12:33:53 48° NW 12:47:17 10° NNE daylight
22 Sep - 14:35:15 10° WNW 14:42:03 14° NNW 14:48:18 10° N daylight
22 Sep - 21:06:31 10° N 21:10:15 17° NNE 21:13:27 10° ENE night (unlit)
22 Sep - 23:09:37 10° WNW 23:14:17 46° SW 23:18:32 10° SSE night (unlit)
23 Sep - 07:40:04 10° S 07:46:40 16° SE 07:54:12 10° ESE daylight
23 Sep - 09:40:34 10° SSW 09:53:13 59° SE 10:08:02 10° ENE daylight
23 Sep - 11:46:15 10° WSW 12:00:09 54° NW 12:14:15 10° NNE daylight
23 Sep - 13:59:37 10° WNW 14:08:17 17° NNW 14:16:18 10° N daylight
23 Sep - 20:33:58 10° N 20:37:24 15° NNE 20:40:22 10° ENE night (unlit)
23 Sep - 22:36:39 10° WNW 22:41:47 63° SW 22:46:10 10° SE night (unlit)
24 Sep - 07:08:58 10° SSE 07:13:15 12° SE 07:17:57 10° ESE daylight
24 Sep - 09:07:49 10° SSW 09:19:40 52° SE 09:34:06 10° ENE daylight
24 Sep - 11:12:43 10° WSW 11:26:27 60° NW 11:41:04 10° NE daylight
24 Sep - 13:24:29 10° WNW 13:34:30 21° NW 13:43:54 10° N daylight
24 Sep - 20:01:25 10° N 20:04:29 13° NNE 20:07:09 10° NE night (unlit)
24 Sep - 22:03:40 10° NW 22:09:16 85° SW 22:13:45 10° SE night (unlit)
25 Sep - 08:35:11 10° SSW 08:46:12 45° SE 09:00:00 10° ENE daylight
25 Sep - 10:39:21 10° WSW 10:52:44 68° NW 11:07:45 10° NE daylight
25 Sep - 12:49:45 10° W 13:00:42 24° NW 13:11:17 10° NNE daylight
25 Sep - 19:28:52 10° N 19:31:28 12° NNE 19:33:48 10° NE visible
25 Sep - 21:30:40 10° NW 21:36:43 74° NE 21:41:18 10° SE night (unlit)
26 Sep - 08:02:43 10° SSW 08:12:49 38° SE 08:25:42 10° ENE daylight
26 Sep - 10:06:09 10° SW 10:19:03 76° NW 10:34:19 10° NE daylight
26 Sep - 12:15:19 10° W 12:26:53 28° NW 12:38:28 10° NNE daylight
26 Sep - 18:56:22 10° N 18:58:22 11° NNE 19:00:14 10° NE visible
26 Sep - 20:57:37 10° NW 21:04:05 58° NE 21:08:50 10° ESE night (unlit)
26 Sep - 23:05:27 10° WSW 23:07:30 12° SW 23:09:27 10° SSW night (unlit)
27 Sep - 07:30:23 10° SSW 07:39:31 32° SE 07:51:14 10° E daylight
27 Sep - 09:33:06 10° SW 09:45:26 84° NW 10:00:45 10° NE daylight
27 Sep - 11:41:10 10° W 11:53:05 31° NW 12:05:30 10° NNE daylight
27 Sep - 18:24:06 10° NNE 18:25:12 10° NNE 18:26:14 10° NNE visible
27 Sep - 20:24:32 10° NW 20:31:24 47° NE 20:36:17 10° ESE night (unlit)
27 Sep - 22:31:25 10° W 22:34:55 18° SW 22:38:01 10° S night (unlit)
28 Sep - 06:58:15 10° S 07:06:17 26° SE 07:16:32 10° E daylight
28 Sep - 09:00:11 10° SW 09:11:53 87° SE 09:27:04 10° NE daylight
28 Sep - 11:07:17 10° W 11:19:17 35° NW 11:32:24 10° NNE daylight
28 Sep - 13:25:05 10° NW 13:29:06 11° NNW 13:33:02 10° N daylight
28 Sep - 19:51:25 10° NNW 19:58:37 40° NE 20:03:42 10° ESE visible
28 Sep - 21:57:42 10° W 22:02:21 24° SW 22:06:12 10° S night (unlit)
29 Sep - 06:26:20 10° S 06:33:07 21° SE 06:41:34 10° E daylight
29 Sep - 08:27:25 10° SW 08:38:25 78° SE 08:53:16 10° NE daylight
29 Sep - 10:33:37 10° W 10:45:31 39° NW 10:59:10 10° NNE daylight
29 Sep - 12:48:52 10° NW 12:55:05 13° NNW 13:01:11 10° N daylight
29 Sep - 19:18:14 10° NNW 19:25:45 34° NE 19:31:03 10° E visible
29 Sep - 21:24:07 10° WNW 21:29:49 33° SW 21:34:13 10° SSE night (unlit)
30 Sep - 05:54:49 10° S 06:00:01 16° SE 06:06:12 10° ESE daylight
30 Sep - 07:54:46 10° SW 08:05:03 68° SE 08:19:22 10° NE daylight
30 Sep - 10:00:09 10° WSW 10:11:48 44° NW 10:25:49 10° NNE daylight
30 Sep - 12:13:31 10° WNW 12:21:05 15° NNW 12:28:43 10° N daylight
30 Sep - 18:45:01 10° NNW 18:52:47 31° NNE 18:58:20 10° E visible
30 Sep - 20:50:35 10° WNW 20:57:16 44° SW 21:02:07 10° SSE night (unlit)
